KJ6MC Weather Reports


Display with metric or nautical units.
time (UTC)temp
F
wind
direction
speed
MPH
gust
MPH
rain 1hr
in
rain 24hr
in
rain mn
in
humidity
%
barometer
mb
20180620152946 63 200 1.0 7.0 0.00 0.00 0.00 70 1014.2
20180620151946 62 170 1.0 7.0 0.00 0.00 0.00 73 1014.0
20180620145946 61 239 3.0 6.0 0.00 0.00 0.00 74 1013.9
20180620143945 60 176 1.0 6.0 0.00 0.00 0.00 76 1013.8
20180620141945 59 234 2.0 5.0 0.00 0.00 0.00 78 1013.8
20180620140945 58 160 3.0 4.0 0.00 0.00 0.00 79 1013.7
20180620135945 58 233 1.0 7.0 0.00 0.00 0.00 81 1013.7
20180620134945 57 254 1.0 6.0 0.00 0.00 0.00 83 1013.7
20180620133944 56 247 2.0 6.0 0.00 0.00 0.00 84 1013.7
20180620132944 55 155 2.0 5.0 0.00 0.00 0.00 86 1013.7
20180620131944 55 262 3.0 4.0 0.00 0.00 0.00 86 1013.5
20180620125944 55 181 0.0 6.0 0.00 0.00 0.00 85 1013.4
20180620121943 56 262 3.0 6.0 0.00 0.00 0.00 82 1013.0
20180620120944 57 269 2.0 6.0 0.00 0.00 0.00 81 1012.9
20180620115943 57 267 0.0 6.0 0.00 0.00 0.00 81 1012.9
20180620114943 57 233 3.0 6.0 0.00 0.00 0.00 80 1012.8
20180620112942 58 282 1.0 10.0 0.00 0.00 0.00 78 1012.7
20180620104942 60 282 1.0 6.0 0.00 0.00 0.00 75 1012.6
20180620103942 60 225 2.0 5.0 0.00 0.00 0.00 74 1012.6
20180620101942 60 247 0.0 2.0 0.00 0.00 0.00 75 1012.5
20180620095941 60 279 0.0 2.0 0.00 0.00 0.00 75 1012.6
20180620093941 60 254 0.0 2.0 0.00 0.00 0.00 74 1012.6
20180620084940 61 220 2.0 6.0 0.00 0.00 0.00 72 1012.6
20180620083940 61 220 3.0 4.0 0.00 0.00 0.00 71 1012.7
20180620081940 62 243 0.0 3.0 0.00 0.00 0.00 71 1012.8
20180620080940 62 227 2.0 3.0 0.00 0.00 0.00 71 1012.9
20180620074940 62 159 2.0 3.0 0.00 0.00 0.00 71 1013.0
20180620073939 62 161 0.0 3.0 0.00 0.00 0.00 71 1013.0
20180620072939 62 180 0.0 3.0 0.00 0.00 0.00 71 1013.0
20180620071939 62 188 0.0 3.0 0.00 0.00 0.00 71 1013.0
20180620070939 62 169 2.0 3.0 0.00 0.00 0.00 71 1013.1
20180620065939 62 156 0.0 2.0 0.00 0.00 0.00 71 1013.1
20180620064939 63 180 0.0 2.0 0.00 0.00 0.00 70 1013.2
20180620063939 63 142 0.0 2.0 0.00 0.00 0.00 69 1013.1
20180620061938 64 182 0.0 5.0 0.00 0.00 0.00 68 1013.1
20180620055938 65 235 2.0 5.0 0.00 0.00 0.00 67 1013.1
20180620054938 65 186 1.0 5.0 0.00 0.00 0.00 67 1013.0
20180620052938 66 238 3.0 6.0 0.00 0.00 0.00 66 1012.9
20180620050937 67 239 3.0 5.0 0.00 0.00 0.00 64 1012.6
20180620044937 68 225 3.0 5.0 0.00 0.00 0.00 61 1012.5
20180620043937 69 279 1.0 3.0 0.00 0.00 0.00 60 1012.5
20180620042937 70 278 0.0 9.0 0.00 0.00 0.00 59 1012.3
20180620041936 70 275 2.0 8.0 0.00 0.00 0.00 58 1012.2
20180620035936 72 292 1.0 10.0 0.00 0.00 0.00 56 1012.1
20180620033936 74 240 1.0 8.0 0.00 0.00 0.00 53 1012.1
20180620024935 80 274 1.0 8.0 0.00 0.00 0.00 45 1011.8
20180620022935 81 254 1.0 12.0 0.00 0.00 0.00 44 1011.7
20180620013934 86 280 0.0 10.0 0.00 0.00 0.00 36 1011.7
20180620012954 86 162 3.0 12.0 0.00 0.00 0.00 35 1011.6
20180620004934 91 256 6.0 7.0 0.00 0.00 0.00 34 1011.8
20180620003934 92 288 0.0 3.0 0.00 0.00 0.00 33 1011.7
20180620002933 92 198 4.0 6.0 0.00 0.00 0.00 33 1011.8
20180620001933 94 189 0.0 5.0 0.00 0.00 0.00 32 1012.0
20180619235933 95 252 3.0 6.0 0.00 0.00 0.00 30 1012.1
20180619232933 95 85 2.0 6.0 0.00 0.00 0.00 31 1012.1
20180619231932 96 206 2.0 3.0 0.00 0.00 0.00 29 1012.1
20180619224932 95 270 0.0 3.0 0.00 0.00 0.00 32 1012.3
20180619223932 94 288 0.0 3.0 0.00 0.00 0.00 32 1012.4
20180619221932 95 3 2.0 5.0 0.00 0.00 0.00 32 1012.7
20180619220931 93 100 1.0 3.0 0.00 0.00 0.00 34 1012.7
20180619213931 92 265 1.0 4.0 0.00 0.00 0.00 33 1013.0
20180619212931 91 184 4.0 4.0 0.00 0.00 0.00 32 1013.1
20180619204930 91 235 4.0 7.0 0.00 0.00 0.00 34 1013.4
20180619202930 90 231 1.0 4.0 0.00 0.00 0.00 33 1013.5
20180619193929 86 291 0.0 8.0 0.00 0.00 0.00 42 1014.0
20180619185929 82 342 3.0 4.0 0.00 0.00 0.00 45 1014.3
20180619183929 82 220 1.0 3.0 0.00 0.00 0.00 46 1014.5
20180619181928 78 302 0.0 5.0 0.00 0.00 0.00 50 1014.6
20180619174928 76 238 1.0 5.0 0.00 0.00 0.00 55 1014.9
20180619173927 76 250 3.0 5.0 0.00 0.00 0.00 54 1014.9
20180619163927 71 254 0.0 4.0 0.00 0.00 0.00 62 1015.2
20180619162927 70 236 2.0 6.0 0.00 0.00 0.00 63 1015.3
20180619160926 68 247 0.0 4.0 0.00 0.00 0.00 66 1015.3
20180619153926 67 165 0.0 4.0 0.00 0.00 0.00 68 1015.4